Погода в Красноселькупе

Погода в Красноселькупе : погода сейчас, прогноз погоды и архив. Всё, что Вы хотите узнать о погоде в Красноселькупе!

Поиск расширенной информации на нашем сайте:

Другие новости

Новости СМИ2

Главная страница сайта

Новости сайта

03.07.2017

Напоминаем, что на нашем специализированном сайте Метеоцентр.Азия вы можете получить высокодетализированные автоматические прогнозы погоды по пунктам России, СНГ и мира в авиационном формате (включающие направление и скорость ветра, видимость, явления погоды, количество и форму облачности, нижнюю и верхнюю границу облачности).

Рекомендуем: Ответы анимационные картинки грузовых машин.

Погода в Красноселькупе - сегодня

Время (UTC), дата Ветер
(°,м/с) 
Видим.   Явления Облачность Т
(°С)
Тd
(°С)
f(%) Тe
(°С)
Pmin
(гПа)
dP
(гПа)
Po
(мм)
O2
(г/м3)
Тmin Tmax R s Состояние
почвы
21 21.11.17 050 (СВ) 10 км  слаб. снег  9/0 средняя 
[Ac As]
-23.5 -26.5 76 -28  1025.5  1.6  767  340           
00 22.11.17 070 (В) 20000 м  {снег}  9/0 средняя 
[Ac As]
-25.5 -28.7 75 -29  1027.3  1.8  768  343           
03 22.11.17 050 (СВ) 20000 м    3/0 средняя 
[Ac As]
-27.7 -30.9 74 -31  1028.8  1.5  769  347  -27.7    0.0  30  равномерный
сухой снег
100% 
06 22.11.17 060 (СВ) 20000 м    4/0 средняя 
[Ac trans]
-27.9 -31.4 72 -31  1030.5  1.6  770  348           
09 22.11.17 070 (В) 20000 м    4/0 средняя 
[Ac trans]
-26.7 -30.1 73 -30  1031.4  771  346           
12 22.11.17 080 (В) 20000 м    4/0 средняя 
[Ac trans]
-27.3 -30.5 74 -28  1031.5  0.1  771  347           
15 22.11.17 070 (В) 20000 м    4/0 средняя 
[Ac trans]
-26.5 -29.9 73 -30  1031.1  -0.4  771  346    -26.5       
18 22.11.17 070 (В) 20000 м    4/0 средняя 
[Ac trans]
-25.3 -28.5 75 -29  1030.4  -0.7  770  344           
21 22.11.17 090 (В) 20000 м    9/0 средняя 
[Ac trans]
-22.9 -26.1 75 -28  1030  -0.4  770  340           
00 23.11.17 100 (В) 20000 м    9/0 средняя 
[Ac trans]
-21.1 -24.3 75 -26  1029.1  -0.8  769  338           
03 23.11.17 090 (В) 20000 м  слаб. снег  10/4 330 м средняя 
[Sc|Ac As]
-21.4 -24.6 75 -26  1028.9  -0.2  769  338  -25.3    0.0  30  равномерный
сухой снег
100% 
06 23.11.17 090 (В) 2000 м  слаб. снег  10/10 300 м 
[Sc]
-21.3 -24.6 75 -26  1029.5  0.6  770  338           
09 23.11.17 080 (В) 20000 м  в посл. час снег  10/0 средняя 
[Ac As]
-21.7 -24.9 75 -27  1029.6  0.1  770  339           
12 23.11.17 070 (В) 20000 м  {снег}  8/0 средняя 
[Ac trans]
-23.3 -26.4 76 -28  1029.8  0.2  770  341           
15 23.11.17 090 (В) 20000 м    9/0 средняя 
[Ac trans]
-21.7 -25.2 73 -26  1029.8  770  339    -21.2  0.0     
18 23.11.17 080 (В) 20000 м    8/0 верхняя 
[Ci fib]
-22.3 -25.9 73 -28  1029.2  -0.6  769  339           
21 23.11.17 090 (В) 20000 м    8/0 верхняя 
[Ci fib]
-22.4 -26.1 72 -27  1027.6  -1.6  768  339           
00 24.11.17 110 (В) н/о    н/о 
-21.2 -24.8 73 -28               
03 24.11.17 110 (В) 4{10}  4000 м  слаб. снег  10/0 средняя 
[As op]
-19.5 -22.7 76 -25  1022.9  -3.5  765  333  -22.7    0.3  30  равномерный
сухой снег
100% 
06 24.11.17 110 (В) 4{10}  2000 м  снег  10/0 средняя 
[Ac As]
-17.5 -20.4 78 -23  1020.1  -2.8  763  330           
09 24.11.17 120 (ЮВ) 6-11{13}  2000 м  снег  10/8 270 м кучево-дожд., средняя 
[Cb cap|Ac As]
-16.6 -19.3 80 -23  1014.7  -5.3  759  327           
12 24.11.17 130 (ЮВ) 6-12{14}  2000 м  слаб. ливневой снег  10/8 360 м кучево-дожд., средняя 
[Cb cap|Ac As]
-15.4 -18.1 80 -22  1008.9  -5.8  754  324           
15 24.11.17 140 (ЮВ) 7-14{15}  2000 м  ливневой снег  10/8 300 м кучево-дожд., средняя 
[Cb cap|Ac As]
-14.4 -17.1 80 -21  1002.7  -6.2  750  320    -14.4     
18 24.11.17 150 (ЮВ) 6-11{14}  2000 м  ливневой снег  10/10 210 м кучево-дожд. 
[Cb cap]
-14.8 -17.3 81 -21  997.8  -4.9  746  319           
21 24.11.17 160 (Ю) 3{12}  2000 м  слаб. ливневой снег  10/10 180 м кучево-дожд. 
[Cb cap]
-14.2 -16.3 84 -18  996  -1.8  745  318           
Время (UTC), дата Ветер
(°,м/с) 
Видим.   Явления Облачность Т
(°С)
Тd
(°С)
f(%) Тe
(°С)
Pmin
(гПа)
dP
(гПа)
Po
(мм)
O2
(г/м3)
Тmin Tmax R s Состояние
почвы

Для получения пояснительной информации подведите курсор к названию столбца.

ПОГОДА в Красноселькупе - архив

Всё, что Вы хотите узнать о погоде в Красноселькупе - удобно и подробно!

Выберите нужную дату (начиная с 1 января 2015* года) и нажмите кнопку "Найти".
Будут отображены архивные сводки погоды по пункту Красноселькуп, начиная с указанной даты.


Отображать данные в формате CSV (для использования в таблицах Excel)


Внимание! Наш архив погоды предназначен исключительно для личного некоммерческого использования в познавательных целях. Если Вам необходимы официальные справки о состоянии погоды (для производственных, юридических, коммерческих и т.п. целей), обращайтесь в органы Росгидромета.

*Примечание: данная дата относится к архиву по метеостанциям СССР (Россия, СНГ, Балтия).
Архив по метеостанциям Зарубежной Европы и Азии (кроме Китая) хранится 10 дней, по другим регионам земного шара (Китай, Африка, Америка, Австралия, Океания) - 1 день.

Красноселькуп - район местоположения метеостанции


Название, широта, долгота, высота метеостанции:
Красноселькуп 65.7°ш. 82.5°д. 60 м над ур. моря [Российская Федерация]

Дополнительная информация

В oтличие oт бoльшинства пoгoдных сайтoв мы публикуем пoдрoбную метеoинфoрмацию в детальнoм прoфессиoнальнoм фoрмате.

Характеристики температуры и влажнoсти вoздуха измеряются на высoте 2 м в тени вдали oт зданий и деревьев.
Скoрoсть ветра измеряется на высoте 10 м (на урoвне рoста челoвека скoрoсть ветра ниже в 1.5-2 раза). Если метеoстанция нахoдится в гoрoде или в лесу, тo скoрoсть ветра занижена на 2-4 м/с пo сравнению с oткрытым местoм. Скoрoсть ветра над акватoриями крупных рек и oзёр, а также на вершинах хoлмoв на 2-5 м/с выше, чем в oбычных услoвиях.
Атмoсфернoе давление в разных тoчках местнoсти мoжет значительнo oтличаться oт давления на метеoстанции, в зависимoсти oт услoвий рельефа (при пoдъёме на 10 м давление пoнижается примернo на 1 мм рт.ст.).